Wind_Speed
21 21 21 21 22 23 23 23 23 22 23 23 23 24 24 24 23 23 22 22 22 22 22 22 22 22 22 24 24 24 25 25 25 24 24 25 25 25 25 27 28 29 30
20 21 20 20 20 21 22 21 21 22 22 23 23 23 22 22 22 22 21 21 20 20 20 20 20 20 21 22 22 23 23 22 22 22 22 23 24 25 24 24 26 26 26
19 20 19 19 20 21 21 20 21 21 21 22 22 21 21 20 20 19 18 18 18 18 18 18 18 19 19 19 19 19 20 20 20 20 21 22 23 23 22 22 23 24 24
18 18 19 19 19 19 19 19 18 19 19 19 19 19 18 18 18 17 17 16 16 16 16 17 17 17 17 17 17 17 17 18 18 19 19 19 19 19 20 19 20 19 19
17 17 18 18 18 17 17 17 17 17 16 16 16 16 16 17 16 16 16 15 14 14 14 14 14 15 14 15 15 15 16 15 16 16 16 15 16 16 16 16 16 16 16
15 16 16 16 16 16 16 16 16 15 14 14 15 15 15 14 14 14 14 13 12 12 12 12 12 13 13 13 13 13 13 13 13 13 13 12 12 13 13 13 14 14 14
14 14 14 14 15 15 15 15 14 14 14 14 14 14 13 13 13 12 12 11 11 11 11 11 12 12 11 10 10 10 10 10 10 10 9 8 9 10 10 10 11 11 11
11 12 12 12 13 13 13 13 13 13 13 13 13 13 13 12 12 11 11 10 10 10 10 11 11 11 10 9 9 9 9 8 7 6 6 5 5 6 7 7 8 8 8
10 10 11 11 11 11 11 11 11 11 12 12 12 12 11 11 11 11 10 10 10 11 11 11 11 10 9 8 8 8 8 8 6 5 5 4 4 5 5 5 5 5 6
9 9 8 9 9 10 10 11 11 12 12 12 11 11 11 11 11 11 11 10 11 11 11 10 10 9 8 8 8 8 7 6 5 5 4 3 2 3 3 3 3 4 5
7 7 7 7 8 9 10 10 10 11 11 11 11 10 10 10 11 10 10 11 11 11 11 10 9 8 8 8 9 8 7 6 5 5 4 3 2 2 2 3 3 4 4
6 6 6 7 8 9 9 9 10 10 10 10 10 10 9 9 10 10 10 10 10 11 10 9 9 8 8 8 9 9 7 6 5 5 5 4 3 3 3 4 4 4 4
6 6 6 7 7 8 9 9 9 9 9 9 9 9 9 9 9 9 9 9 9 9 9 9 9 9 9 9 9 8 8 7 6 5 5 4 4 4 4 4 5 6 6
4 5 5 6 7 8 8 8 8 8 9 9 9 10 9 10 9 9 9 9 8 9 9 9 9 9 9 9 9 8 8 7 7 6 6 6 5 4 5 6 6 7 7
3 4 5 6 7 7 8 8 8 9 9 9 9 9 9 9 9 9 8 8 9 9 8 9 9 9 9 8 8 8 7 7 7 6 6 6 6 6 6 7 7 8 9
3 4 5 7 7 7 7 8 8 8 8 8 8 9 9 9 9 9 10 9 9 9 9 9 9 9 8 8 8 9 8 7 8 8 7 7 6 7 7 8 9 10 11
4 5 5 6 7 7 7 8 8 8 8 8 8 8 9 9 9 9 9 9 9 9 9 9 9 10 9 9 9 9 9 9 9 9 9 9 9 9 9 10 11 12 13
4 4 5 6 7 7 8 8 9 9 9 9 9 9 10 10 10 10 9 9 10 10 10 10 10 10 10 10 11 11 11 11 11 11 11 11 11 11 12 13 13 14 15
5 5 5 6 7 7 8 8 9 9 10 9 10 10 10 10 11 11 10 11 11 11 11 11 11 11 11 12 12 12 12 12 13 13 13 13 14 14 15 15 16 17 17
5 6 6 7 7 8 9 9 10 10 10 11 11 11 11 11 12 12 12 12 13 12 12 13 13 13 13 13 14 14 14 14 15 15 15 15 16 17 17 17 18 19 20
5 6 7 8 8 8 9 10 11 11 11 12 12 12 13 13 13 14 14 14 14 15 14 15 15 15 15 15 16 16 16 16 16 17 17 19 19 20 20 21 21 22 23
6 6 7 8 9 9 10 10 11 12 12 13 14 14 14 15 15 16 16 16 16 17 17 17 17 17 18 18 19 19 19 20 20 21 21 21 22 22 23 24 24 25 25
6 7 8 9 9 10 11 11 12 13 13 14 15 15 16 17 17 17 17 18 18 19 19 19 19 20 20 21 21 22 22 22 23 23 23 24 25 25 26 26 26 27 28
7 8 9 9 10 11 12 13 14 14 15 15 16 17 17 18 18 19 19 20 20 21 21 22 22 22 23 23 24 24 24 24 25 25 26 26 27 28 28 28 29 29 30
8 9 10 11 12 13 14 14 15 16 16 17 18 19 20 20 21 21 22 22 22 22 23 24 24 25 25 25 26 26 27 27 28 28 28 28 29 29 30 30 31 31 32
10 11 11 12 14 15 15 16 17 18 19 20 20 21 22 22 23 23 24 24 24 25 25 25 26 26 26 26 27 28 29 30 30 31 31 31 32 32 33 33 33 33 34
Wind_Direction
297 300 300 300 300 303 302 300 298 299 299 301 302 300 300 300 299 297 295 293 291 288 283 281 281 281 282 280 279 279 278 277 274 267 265 266 264 264 263 263 264 263 262
300 304 304 305 306 306 306 303 302 302 303 303 303 303 303 302 300 299 298 296 293 290 288 286 285 285 285 284 282 281 279 279 276 270 269 270 266 266 266 266 263 261 261
300 303 306 308 309 309 310 308 306 305 305 305 306 307 307 306 304 303 303 301 297 294 293 292 290 289 288 287 286 283 281 280 278 274 272 271 268 266 266 266 264 262 260
298 301 305 309 311 312 313 313 311 311 310 310 310 310 310 310 309 308 307 305 303 301 299 298 298 297 294 291 287 284 284 283 279 276 274 270 268 267 264 265 265 264 261
299 303 308 310 313 316 318 318 317 317 316 317 316 316 315 314 313 312 313 312 312 311 310 308 307 304 298 295 293 290 287 284 283 280 276 272 268 265 264 265 266 264 262
301 307 311 312 313 316 321 323 324 323 322 322 322 322 323 321 318 318 319 319 322 321 320 318 318 312 304 299 299 298 295 291 288 286 283 275 265 262 262 264 264 263 262
303 305 309 314 316 318 320 321 325 326 327 327 328 329 331 332 331 330 330 331 330 331 329 328 327 324 317 309 307 306 304 303 298 294 288 270 263 259 257 264 267 263 259
303 308 312 316 320 321 323 325 327 332 335 336 335 336 337 335 338 344 344 340 339 337 335 333 334 336 333 325 321 320 318 314 308 306 294 280 268 252 256 263 264 258 255
303 311 313 317 323 327 329 330 333 338 340 338 340 342 344 344 347 349 350 348 346 346 344 341 342 344 343 339 337 336 333 327 316 310 309 299 273 260 258 258 260 253 252
304 313 316 319 324 330 333 336 337 339 339 343 345 345 349 354 350 348 350 349 349 349 349 349 348 347 351 354 351 349 349 349 347 345 342 323 275 258 255 257 254 260 260
308 313 317 322 325 328 334 341 345 345 345 348 350 352 357 0 1 358 355 353 353 354 354 355 357 1 1 3 1 358 356 356 354 352 356 349 324 291 276 269 280 280 273
307 314 315 320 326 331 334 339 343 346 348 349 352 355 359 3 5 3 2 2 3 5 7 8 11 12 9 7 6 4 359 356 355 352 354 355 351 342 323 296 285 286 290
306 312 320 327 332 335 336 337 338 342 347 351 354 357 360 3 4 4 7 9 13 16 18 18 19 18 15 10 6 5 3 4 2 -0 356 348 336 325 322 321 313 305 302
317 324 328 331 334 337 340 342 343 346 348 351 353 357 360 1 3 6 8 7 10 15 18 19 18 15 13 13 13 13 13 12 5 356 348 341 329 320 311 307 309 310 307
342 347 343 343 344 345 346 346 345 344 346 352 356 360 4 6 6 6 7 4 3 7 15 17 14 12 11 11 10 7 6 6 3 1 356 347 340 331 323 317 312 310 311
348 347 350 352 349 350 354 354 355 357 2 5 7 8 7 7 8 4 360 1 2 4 7 7 5 1 359 359 358 355 354 353 350 346 341 338 334 326 318 313 310 309 310
345 346 350 355 356 359 1 2 3 3 3 1 0 1 359 359 1 0 1 1 359 357 356 352 351 350 348 347 345 344 341 338 336 334 330 327 323 319 315 310 307 305 307
352 352 355 358 358 359 359 359 0 2 359 356 352 349 348 348 348 347 348 347 345 345 343 340 337 338 338 337 336 335 333 329 327 326 324 320 317 315 313 310 309 307 306
356 353 353 355 357 356 356 355 352 351 351 350 347 346 344 342 340 339 338 336 333 331 332 332 330 327 325 325 325 325 324 323 320 318 317 315 313 310 309 308 306 305 304
356 356 357 355 352 353 353 351 349 347 346 344 343 343 344 343 340 337 335 332 330 325 323 323 323 322 318 317 316 315 314 313 313 312 312 311 309 308 307 306 306 305 304
356 354 352 350 348 346 345 344 342 340 339 339 338 337 337 336 335 331 327 326 326 324 321 319 319 318 315 312 312 311 310 310 309 308 306 306 305 304 303 301 302 302 302
358 352 346 343 342 343 341 339 338 337 336 335 334 332 331 330 329 326 322 319 318 318 318 318 316 315 313 312 309 307 307 306 306 305 306 305 305 304 302 300 299 299 299
1 354 347 344 342 342 341 340 338 336 334 332 330 329 327 325 323 321 319 317 316 314 313 312 312 310 309 309 310 310 308 306 304 303 303 302 302 301 300 300 299 299 298
1 354 349 345 343 341 339 336 334 332 331 330 328 326 324 322 320 318 315 314 314 313 311 310 309 308 307 307 306 307 306 305 304 304 303 302 302 301 301 300 299 299 298
353 348 344 340 337 336 334 332 330 328 326 324 323 323 321 320 318 317 315 313 312 311 309 308 307 306 305 305 305 305 305 305 304 304 303 302 301 300 300 300 299 299 298
346 344 341 337 335 334 332 331 328 326 325 323 322 322 321 320 318 318 316 313 311 310 308 307 306 305 303 302 302 302 303 304 303 302 301 300 299 298 298 297 297 297 297
Height
5788 5786 5783 5780 5778 5775 5772 5770 5767 5764 5761 5759 5756 5753 5751 5748 5746 5744 5741 5740 5738 5736 5735 5734 5733 5732 5730 5729 5728 5727 5726 5726 5726 5726 5726 5726 5727 5728 5728 5729 5730 5731 5732
5784 5781 5778 5775 5773 5770 5767 5765 5762 5759 5757 5754 5751 5748 5745 5743 5741 5738 5736 5734 5733 5731 5729 5728 5727 5725 5724 5723 5722 5721 5719 5718 5718 5719 5719 5719 5719 5720 5721 5721 5722 5723 5725
5779 5777 5774 5772 5769 5766 5763 5760 5757 5755 5752 5749 5746 5743 5740 5738 5736 5733 5731 5729 5728 5726 5724 5722 5721 5720 5719 5717 5716 5715 5713 5712 5712 5712 5712 5712 5713 5713 5714 5714 5715 5716 5718
5775 5773 5771 5768 5765 5762 5759 5756 5753 5750 5747 5744 5742 5739 5736 5734 5732 5730 5728 5725 5723 5721 5719 5718 5716 5715 5713 5712 5710 5709 5708 5707 5707 5707 5707 5706 5707 5707 5708 5709 5709 5710 5711
5771 5769 5766 5763 5761 5758 5756 5752 5749 5746 5744 5741 5738 5736 5733 5731 5729 5726 5724 5722 5720 5718 5716 5714 5712 5710 5709 5707 5706 5705 5704 5703 5702 5702 5701 5701 5702 5702 5703 5704 5705 5705 5706
5767 5765 5762 5760 5758 5755 5752 5750 5746 5744 5741 5738 5735 5733 5730 5728 5726 5723 5721 5719 5717 5715 5713 5711 5709 5707 5706 5704 5702 5701 5700 5699 5698 5698 5697 5697 5697 5698 5699 5700 5700 5701 5702
5763 5761 5759 5757 5755 5752 5750 5747 5744 5741 5739 5736 5733 5731 5728 5726 5724 5721 5719 5717 5715 5713 5711 5709 5707 5705 5703 5701 5700 5699 5697 5696 5695 5694 5694 5694 5694 5695 5696 5696 5697 5698 5699
5760 5758 5756 5754 5752 5750 5747 5745 5742 5740 5737 5735 5732 5730 5727 5725 5723 5720 5718 5716 5714 5712 5710 5708 5706 5704 5702 5700 5699 5697 5696 5694 5693 5692 5692 5692 5692 5692 5693 5694 5695 5695 5696
5757 5755 5754 5752 5750 5748 5746 5743 5741 5739 5736 5734 5731 5729 5727 5724 5722 5720 5718 5716 5713 5711 5709 5707 5705 5703 5701 5699 5698 5696 5695 5694 5692 5691 5691 5690 5690 5691 5691 5692 5692 5693 5693
5754 5753 5752 5750 5748 5746 5744 5742 5740 5737 5735 5733 5730 5728 5726 5724 5722 5720 5717 5715 5713 5711 5708 5706 5704 5702 5701 5699 5698 5696 5695 5693 5692 5691 5691 5690 5690 5690 5690 5691 5691 5691 5692
5751 5751 5750 5748 5747 5745 5743 5741 5739 5737 5734 5732 5730 5728 5726 5724 5721 5719 5717 5715 5713 5711 5708 5706 5704 5702 5701 5699 5698 5696 5695 5694 5693 5692 5691 5690 5690 5690 5690 5690 5690 5690 5691
5749 5748 5748 5747 5745 5744 5742 5740 5738 5736 5734 5732 5730 5728 5726 5724 5721 5719 5717 5715 5713 5711 5708 5707 5705 5703 5701 5700 5698 5697 5695 5694 5693 5692 5691 5691 5690 5690 5689 5689 5689 5689 5689
5747 5747 5746 5746 5744 5742 5741 5739 5737 5735 5733 5731 5729 5727 5725 5723 5721 5719 5717 5715 5713 5711 5709 5707 5705 5704 5702 5700 5699 5697 5696 5695 5694 5693 5692 5691 5690 5690 5689 5689 5688 5688 5688
5746 5746 5745 5744 5743 5741 5740 5738 5736 5734 5732 5731 5729 5727 5725 5723 5721 5719 5718 5716 5714 5712 5710 5708 5706 5704 5703 5701 5700 5698 5697 5696 5694 5693 5692 5691 5690 5689 5689 5688 5688 5687 5686
5745 5745 5744 5743 5742 5740 5739 5737 5736 5734 5732 5730 5728 5726 5725 5723 5721 5719 5718 5716 5715 5713 5711 5709 5707 5706 5704 5702 5701 5699 5698 5696 5695 5694 5692 5691 5690 5689 5688 5687 5686 5685 5684
5745 5744 5744 5742 5741 5740 5738 5737 5735 5733 5732 5730 5728 5726 5725 5723 5721 5720 5718 5716 5715 5713 5711 5710 5708 5706 5705 5703 5701 5699 5698 5696 5695 5693 5692 5690 5689 5688 5686 5685 5684 5683 5682
5744 5744 5743 5742 5741 5740 5738 5737 5735 5733 5731 5730 5728 5727 5725 5723 5722 5720 5718 5717 5715 5713 5711 5710 5708 5706 5704 5703 5701 5699 5697 5696 5694 5692 5691 5689 5688 5686 5685 5683 5682 5680 5679
5744 5743 5743 5742 5740 5739 5738 5736 5735 5733 5732 5730 5728 5727 5725 5723 5721 5720 5718 5716 5714 5712 5711 5709 5707 5705 5704 5702 5700 5698 5696 5694 5692 5691 5689 5687 5685 5684 5682 5681 5679 5677 5675
5744 5743 5742 5741 5740 5739 5738 5736 5735 5733 5732 5730 5728 5726 5724 5723 5721 5719 5717 5715 5713 5711 5709 5708 5706 5704 5702 5700 5698 5696 5694 5692 5690 5688 5686 5684 5682 5680 5679 5677 5675 5673 5671
5743 5743 5742 5741 5740 5739 5737 5736 5735 5733 5731 5729 5727 5725 5724 5721 5719 5717 5715 5713 5711 5709 5707 5705 5703 5701 5699 5697 5695 5693 5691 5689 5687 5685 5683 5681 5679 5676 5674 5672 5670 5668 5666
5744 5743 5742 5741 5740 5738 5737 5735 5734 5732 5730 5728 5726 5724 5722 5720 5718 5716 5714 5711 5709 5707 5705 5702 5700 5698 5696 5694 5692 5689 5687 5685 5683 5681 5678 5676 5674 5672 5669 5667 5665 5662 5660
5743 5742 5741 5740 5739 5737 5736 5734 5733 5731 5729 5727 5725 5722 5720 5718 5716 5713 5711 5708 5706 5704 5701 5699 5697 5694 5692 5690 5687 5685 5683 5680 5678 5675 5673 5670 5668 5666 5663 5660 5658 5655 5653
5743 5742 5741 5740 5738 5737 5735 5733 5731 5729 5727 5725 5723 5720 5718 5715 5713 5710 5707 5705 5702 5700 5697 5695 5692 5690 5687 5685 5682 5679 5677 5674 5672 5669 5666 5664 5661 5659 5656 5653 5650 5647 5645
5743 5742 5741 5739 5737 5736 5734 5731 5729 5727 5725 5722 5720 5717 5715 5712 5709 5706 5704 5701 5698 5695 5693 5690 5687 5685 5682 5679 5676 5673 5671 5668 5665 5662 5659 5657 5654 5651 5648 5645 5642 5639 5636
5743 5742 5740 5738 5736 5734 5732 5730 5727 5725 5722 5719 5717 5714 5711 5708 5705 5702 5699 5696 5693 5690 5687 5684 5681 5678 5675 5673 5670 5667 5664 5661 5658 5654 5651 5648 5645 5642 5639 5636 5633 5630 5627
5743 5741 5739 5737 5735 5732 5730 5727 5724 5722 5719 5716 5713 5710 5706 5703 5700 5697 5693 5690 5687 5684 5680 5677 5674 5671 5668 5665 5662 5659 5656 5653 5649 5646 5642 5639 5636 5633 5630 5626 5623 5620 5617